Starlink 30285

operational
NORAD ID: 57840 Int'l Des: 2023-141 Owner: SPXS Country: US Constellation: starlink
LEOCIRCULAR

Starlink 30285について

説明を読み込み中...

リアルタイム位置

3D地球を読み込み中...

次回通過

高度履歴

Altitude vs Time

uPlot chart will show altitude changes over time

軌道要素

1 57840U 23141A 26034.30793826 -.00000479 00000-0 -40612-5 0 9998
2 57840 53.1596 83.8404 0001291 93.4224 266.6925 15.30191057135062
Epoch: Feb 3, 2026 • Age: 22 hours

現在のステータス

高度 478.7 km
速度 7.63 km/s
衛星直下点 42.81°N, 95.03°W
打ち上げ日 Sep 12, 2023
運用期間 2.3 years
タイプ internet

技術仕様

分類 Payload
質量 730.00 kg
乾燥質量 700.00 kg
総質量 730.00 kg
長さ 0.30 m
直径 4.10 m
スパン 29.00 m
形状 Box + pan
製造者 SPXS
バスタイプ Starlink V2M
フェーズステータス In Orbit
所有者/国 SPXS/US

大規模コンステレーション

Loading constellations...